[Iaude] MPEC J239: 2024 JL8 [a=1.31,e=0.53,i=8.9,H=24.7]

mpec at cfa.harvard.edu mpec at cfa.harvard.edu
Thu May 9 20:28:29 EDT 2024


M.P.E.C. 2024-J239                                 Issued 2024 May 10, 00:26 UT

     The Minor Planet Electronic Circulars contain information on unusual
         minor planets, routine data on comets and natural satellites,
         and occasional editorial announcements.  They are published
    on behalf of Division F of the International Astronomical Union by the
          Minor Planet Center, Smithsonian Astrophysical Observatory,
                          Cambridge, MA 02138, U.S.A.
			  
             Prepared using the Tamkin Foundation Computer Network

                              MPC at CFA.HARVARD.EDU
            URL https://www.minorplanetcenter.net/    ISSN 1523-6714

                                    2024 JL8                                    


Observations:
     K24J08L 1C2024 05 03.34085 14 02 07.58 +12 49 34.1          21.7 GVEJ239G96
     K24J08L 1C2024 05 03.34602 14 02 05.87 +12 50 28.1          20.8 GVEJ239G96
     K24J08L 1C2024 05 03.35120 14 02 04.16 +12 51 22.7          20.4 GVEJ239G96
     K24J08L* C2024 05 09.24691713 14 43.480+34 57 12.60         21.62GVEJ239V00
     K24J08L  C2024 05 09.25252913 14 39.206+34 58 42.49         21.43GVEJ239V00
     K24J08L  C2024 05 09.25813113 14 34.879+35 00 13.97               VEJ239V00
     K24J08L  C2024 05 09.26374213 14 30.631+35 01 43.86               VEJ239V00
     K24J08L KC2024 05 09.32939013 13 39.961+35 19 27.12         21.60GVEJ239I52
     K24J08L KC2024 05 09.33553313 13 35.213+35 21 06.84         21.30GVEJ239I52
     K24J08L KC2024 05 09.34167513 13 30.479+35 22 46.09         21.27GVEJ239I52
     K24J08L KC2024 05 09.34781913 13 25.738+35 24 25.38         21.83GVEJ239I52
     K24J08L 1C2024 05 09.92947 13 05 56.59 +38 04 10.0          21.8 VXEJ239033
     K24J08L 1C2024 05 09.93039 13 05 55.79 +38 04 25.8          21.9 VXEJ239033
     K24J08L 1C2024 05 09.93130 13 05 55.04 +38 04 40.7          22.1 VXEJ239033
     K24J08L 1C2024 05 09.93224 13 05 54.23 +38 04 56.2          21.9 VXEJ239033

Observer details:
033 Karl Schwarzschild Observatory, Tautenburg.  Observers S. Melnikov, C.
    Hogner, F. Ludwig, M. Hartmann, B. Stecklum.  Measurer B. Stecklum.
    1.34-m f/3 Schmidt + CCD.
G96 Mt. Lemmon Survey.  Observer H. Groeller.  Measurers B. Gray, D. Rankin,
    F. C. Shelly.  1.5-m reflector + 10K CCD.
I52 Steward Observatory, Mt. Lemmon Station.  Observer H. Groeller.  Measurers
    T. Beuden, V. F. Carvajal, D. Fay, J. B. Fazekas, D. C. Fuls, A. R. Gibbs,
    A. D. Grauer, H. Groeller, J. K. Hogan, R. A. Kowalski, S. M. Larson, G.
    J. Leonard, D. Rankin, R. L. Seaman, F. C. Shelly, K. W. Wierzchos.  1.0-m
    prime focus + CCD.
V00 Kitt Peak-Bok.  Observer R. A. Mastaler.  Measurers M. J. Brucker, C. E.
    Woodward, T. Beuden, V. F. Carvajal, D. Fay, J. B. Fazekas, D. C. Fuls, A.
    R. Gibbs, H. Groeller, J. K. Hogan, R. A. Kowalski, S. M. Larson, C.
    Lejoly, G. J. Leonard, R. A. Mastaler, R. S. McMillan, D. Rankin, R. L.
    Seaman, F. C. Shelly, K. W. Wierzchos.  2.25-m reflector + 4x4K mosaic
    CCD.

Orbital elements:
2024 JL8                                                 Earth MOID = 0.0679 AU
Epoch 2024 Mar. 31.0 TT = JDT 2460400.5                 MPC                     
M 293.46725              (2000.0)            P               Q                  
n   0.65814743     Peri.  124.32611     +0.85282027     +0.51820546             
a   1.3089426      Node   204.65131     -0.51536577     +0.81528130             
e   0.5342691      Incl.    8.89645     -0.08423602     +0.25841730             
P   1.50           H   24.72          G   0.15           U   8                  
Residuals in seconds of arc
240503 G96  0.3-  0.2-    240509 V00  0.3-  0.4+    240509 I52  0.2-  0.2+
240503 G96  0.3+  0.2+    240509 V00  0.5+  0.9-    240509 033  0.4+  0.3-
240503 G96 (0.9+  1.0+)   240509 I52  0.2+  0.3-    240509 033  0.2+  0.2+
240509 V00 (0.5-  1.2+)   240509 I52  0.0   0.1+    240509 033  0.4+  0.0
240509 V00  0.0   0.1-    240509 I52  0.0   0.1+    240509 033  0.2+  0.0

Ephemeris:
2024 JL8                 a,e,i = 1.31, 0.53, 9                   q = 0.6096
Date    TT    R. A. (2000) Decl.     Delta      r    Elong.  Phase     V
2024 04 10    14 47 41.2 -15 10 12   0.3355  1.3158   156.2    17.9    23.9
...
2024 04 25    14 30 42.3 -03 47 35   0.1872  1.1905   169.4     8.9    22.1
...
2024 05 03    14 03 54.4 +11 51 39   0.1255  1.1195   151.0    25.9    21.6
...
2024 05 09    13 17 40.7 +33 50 14   0.09580 1.0646   122.9    52.8    21.7
2024 05 10    13 05 00.8 +38 23 55   0.09312 1.0553   117.0    58.5    21.8
2024 05 11    12 49 57.6 +43 03 57   0.09125 1.0460   110.9    64.4    21.9
...
2024 05 17    09 54 40.6 +65 06 16   0.09770 0.9896    74.5   100.0    23.3
...
2024 05 25    05 39 46.6 +60 13 59   0.1412  0.9137    42.5   131.5    26.1
...
2024 06 09    04 10 14.5 +43 15 15   0.2706  0.7751    23.7   148.2    29.4

A. U. Tomatic                (C) Copyright 2024 MPC           M.P.E.C. 2024-J239





More information about the Iaude mailing list